SCP
-0 0 -0 -0 -0 -0 0 0 0 0 0 0 0 0 0 0 0 0 0 0 0 0 -0 0 -0 -0 -0 -0 -0 -0 -0 -0 -0 -0 -0 -0 -0 -0 -0 -0 -0 -0 -0 -0 -0 -0 -0 -0 -0
-0 -0 -0 -0 -0 -0 0 0 0 0 0 0 0 0 0 0 0 0 0 0 0 0 0 0 -0 -0 -0 -0 -0 -0 -0 -0 -0 -0 -0 -0 -0 -0 -0 -0 -0 -0 -0 -0 -0 -0 -0 -0 -0
0 -0 0 0 0 -0 0 0 0 0 0 0 0 0 0 0 0 0 -0 0 -0 0 0 0 -0 -0 -0 -0 -0 -0 -0 -0 -0 -0 -0 -0 -0 -0 -0 -0 -0 -0 -0 -0 -0 -0 -0 -0 -0
0 -0 -0 0 -0 0 -0 -0 -0 -0 0 0 0 0 0 -0 0 -0 -0 -0 -0 0 0 -0 -0 -0 -0 -0 -0 -0 -0 -0 -0 -0 -0 -0 -0 -0 -0 -0 -0 -0 -0 -0 -0 -0 -0 -0 -0
0 0 0 0 0 0 0 0 -0 -0 0 0 0 0 0 0 -0 0 -0 0 -0 0 0 -0 -0 -0 -0 -0 -0 -0 -0 -0 -0 -0 -0 -0 -0 -0 -0 -0 -0 -0 -0 -0 -0 -0 -0 -0 -0
0 0 0 0 0 0 0 0 0 0 0 0 0 0 0 0 0 0 0 0 0 0 0 0 -0 -0 -0 -0 -0 -0 -0 -0 -0 -0 -0 -0 -0 -0 -0 -0 -0 -0 -0 -0 -0 -0 -0 -0 -0
0 0 0 0 0 0 0 0 0 0 0 0 0 0 0 0 0 0 0 0 0 0 0 0 0 0 -0 -0 -0 -0 -0 -0 -0 -0 -0 -0 -0 -0 -0 -0 -0 -0 -0 -0 -0 -0 -0 -0 -0
0 0 0 0 0 0 0 0 0 0 0 0 0 0 0 0 0 0 0 0 0 0 0 0 0 0 0 0 -0 -0 -0 -0 -0 -0 -0 -0 0 0 0 0 -0 -0 -0 -0 -0 -0 -0 -0 -0
0 0 0 0 0 0 0 0 0 0 0 0 0 0 0 0 0 0 0 0 0 0 0 0 0 0 0 0 0 0 -0 -0 -0 -0 -0 0 0 0 0 0 0 0 0 0 0 0 0 0 0
0 0 0 0 0 0 0 0 0 0 0 0 0 0 0 0 0 0 0 0 0 0 0 0 0 0 0 0 0 0 0 0 0 0 0 0 0 0 0 0 0 0 0 0 0 0 0 0 0
0 0 0 0 0 0 0 0 0 0 0 0 0 0 0 0 0 0 0 0 0 0 0 0 0 0 0 0 0 0 0 0 0 0 0 0 0 0 0 0 0 0 0 0 0 0 0 0 0
0 0 0 0 0 0 0 0 0 0 0 0 0 0 0 0 0 0 0 0 0 0 0 0 0 0 0 0 0 0 0 0 0 0 0 0 0 0 0 0 0 0 0 0 0 0 0 0 0
0 0 0 0 0 0 0 0 0 0 0 0 0 0 0 0 0 0 0 0 0 0 0 0 0 0 0 0 0 0 0 0 0 0 0 0 0 0 0 0 0 0 0 0 0 0 0 0 0
0 0 0 0 0 0 0 0 0 0 0 0 0 0 0 0 0 0 0 0 0 0 0 0 0 0 0 0 0 0 0 0 0 0 0 0 0 0 0 0 0 0 0 0 0 0 0 0 0
0 0 0 0 0 0 0 0 0 0 0 0 0 0 0 0 0 0 0 0 0 0 0 0 0 0 0 0 0 0 0 0 0 0 0 0 0 0 0 0 0 0 0 0 0 0 0 0 0
0 0 0 0 0 0 0 0 0 0 0 0 0 0 0 0 0 0 0 0 0 0 0 0 0 0 0 0 0 0 0 0 0 0 0 0 0 0 0 0 0 0 0 0 0 0 0 0 0
0 0 0 0 0 0 0 0 0 0 0 0 0 0 0 0 0 0 0 0 0 0 0 0 0 0 0 0 0 0 0 0 0 0 0 0 0 0 0 0 0 0 0 0 0 0 0 0 0
0 0 0 0 0 0 0 0 0 0 0 0 0 0 0 0 0 0 0 0 0 0 0 0 0 0 0 0 0 0 0 0 0 0 0 0 0 0 0 0 0 0 0 0 0 0 0 0 0
0 0 0 0 0 0 0 0 0 0 0 -0 0 0 0 0 0 0 0 0 0 0 0 0 0 0 0 0 0 0 0 0 0 0 0 0 0 0 0 0 0 0 0 0 0 0 0 0 0
0 0 0 0 0 0 0 0 0 0 0 0 0 0 0 0 0 0 0 0 0 0 0 0 0 0 0 0 0 0 0 0 0 0 0 0 0 0 0 0 0 0 0 0 0 0 0 0 0
0 0 0 0 0 0 0 0 0 0 0 0 0 0 0 0 0 0 0 0 0 0 0 0 0 0 0 0 0 0 0 0 0 0 0 0 0 0 0 0 0 0 0 0 0 0 0 0 0
0 0 0 0 0 0 0 -0 0 0 0 0 0 0 0 0 0 0 0 0 0 0 0 0 0 0 0 0 0 0 0 0 0 0 0 0 0 0 0 0 0 0 0 0 0 0 0 0 0
0 0 0 0 0 0 0 0 0 0 0 0 0 0 0 0 0 0 0 0 0 0 0 0 0 0 0 0 0 0 0 0 0 0 0 0 0 0 0 0 0 0 0 0 0 0 0 0 0
0 0 0 0 0 0 0 0 0 0 0 0 0 0 0 0 0 0 0 0 0 0 0 0 0 0 0 0 0 0 0 0 0 0 0 0 0 0 0 0 0 0 0 0 0 0 0 0 0
0 0 0 0 0 0 0 0 0 0 0 0 0 0 0 0 0 0 0 0 0 0 0 0 0 0 0 0 0 0 0 0 0 0 0 0 0 0 0 0 0 0 0 0 0 0 0 0 0
0 0 0 0 0 0 0 0 0 0 0 0 0 0 0 0 0 0 0 0 0 0 0 0 0 0 0 0 0 0 0 0 0 0 0 0 0 0 0 0 0 0 0 0 0 0 0 0 0
0 0 0 0 0 0 0 0 0 0 0 0 0 0 0 0 0 0 0 0 0 0 0 0 0 0 0 0 0 0 0 0 0 0 0 0 0 0 0 0 0 0 0 0 0 0 0 0 0
0 0 0 0 0 0 0 0 0 0 0 0 0 0 0 0 0 0 0 0 0 0 0 0 0 0 0 0 0 0 0 0 0 0 0 0 0 0 0 0 0 0 0 0 0 0 0 0 0
0 0 0 0 0 0 0 0 0 0 0 0 0 0 0 0 0 0 0 0 0 0 0 0 0 0 0 0 0 0 0 0 0 0 0 0 0 0 0 0 0 0 0 0 0 0 0 0 0
0 0 0 0 0 0 0 0 0 0 0 0 0 0 0 -0 -0 -0 0 0 0 0 0 0 0 0 0 0 0 0 0 0 0 0 0 0 0 0 0 0 0 0 0 0 0 0 0 0 0
Wind_Speed_500mb
5 3 2 1 7 10 1 7 2 3 3 2 10 8 11 7 7 6 28 23 24 28 31 28 26 24 23 20 17 17 16 10 14 17 21 24 25 23 21 19 19 21 22 21 19 17 14 17 20
4 7 6 4 9 5 8 6 7 7 20 29 20 12 7 3 6 16 25 20 22 28 30 29 27 24 22 19 18 16 13 10 12 14 20 25 27 26 24 23 23 24 24 22 20 18 17 16 18
10 9 4 9 7 8 8 8 9 5 30 5 8 10 7 7 15 20 13 20 25 30 29 27 26 24 21 18 17 15 14 11 10 11 17 21 23 25 25 25 25 24 25 24 20 18 20 20 18
9 7 10 8 5 6 6 7 13 14 9 3 15 10 8 9 12 12 15 22 29 32 29 26 25 24 21 18 15 13 13 10 10 13 14 18 21 24 25 24 25 23 24 25 23 24 22 20 18
9 5 8 6 5 6 7 7 21 9 7 10 11 9 9 14 11 16 18 24 30 33 29 26 24 23 22 20 17 14 11 11 12 11 11 13 17 21 23 23 23 24 24 24 22 22 20 19 18
5 5 8 4 6 6 6 9 14 9 12 14 9 17 11 17 18 20 24 25 26 26 32 26 23 22 21 20 17 15 12 11 12 10 9 10 12 17 20 19 19 21 23 23 21 19 18 15 15
11 8 9 9 5 4 7 15 9 13 13 12 13 11 8 26 24 24 25 27 25 24 29 24 21 20 20 19 17 15 12 13 14 10 8 8 9 13 16 16 17 18 19 20 19 20 18 18 16
8 11 8 6 9 9 8 14 7 18 9 14 19 9 9 33 31 30 30 30 29 28 29 29 24 25 23 20 18 16 15 14 15 11 10 7 5 10 16 18 18 18 18 19 19 19 18 17 15
8 9 5 10 13 8 13 8 10 10 14 22 19 13 13 38 37 36 36 36 35 33 35 33 29 27 25 23 21 19 16 18 18 16 13 8 3 6 10 15 18 21 24 25 23 21 19 18 17
8 8 17 11 10 6 10 11 16 10 12 17 19 25 21 41 44 43 43 41 44 42 39 38 35 32 28 27 26 25 24 24 21 19 17 12 7 2 6 11 14 18 20 21 21 22 22 20 17
7 9 9 6 7 7 8 6 11 12 8 25 34 34 32 45 47 45 43 41 41 43 42 39 41 35 37 35 34 30 28 27 26 25 22 19 12 6 7 4 3 13 19 22 16 18 19 22 20
2 2 6 4 8 5 4 3 7 24 27 12 29 28 39 48 50 50 49 48 46 45 43 42 43 38 43 40 39 33 30 30 28 29 25 23 20 16 17 14 12 8 3 9 17 14 17 19 17
2 2 5 9 9 9 8 19 18 25 37 35 22 30 42 49 51 50 48 47 48 47 45 45 46 42 42 38 38 40 34 33 32 29 29 28 28 22 21 22 20 15 5 0 11 12 16 15 14
2 4 8 10 14 13 9 8 5 16 33 39 35 36 45 52 53 55 57 56 54 51 49 47 49 46 43 40 40 37 39 38 40 35 34 32 31 27 25 28 23 19 11 6 4 17 15 11 8
1 7 12 11 11 10 11 15 20 42 32 31 40 41 48 53 56 60 55 56 54 53 52 51 51 50 49 49 44 42 43 45 43 43 41 35 36 36 34 38 31 22 12 9 13 16 9 6 5
5 7 6 3 11 3 12 21 8 8 28 39 41 43 50 55 59 56 56 56 57 57 56 55 55 56 57 57 54 49 49 48 47 47 43 44 41 42 40 44 39 22 14 12 13 15 10 7 13
10 7 8 15 12 5 6 15 8 4 18 33 42 51 57 59 62 61 58 57 57 57 58 58 58 59 58 57 56 54 52 53 54 50 52 48 46 47 44 39 27 24 14 13 12 16 10 17 23
11 8 9 11 3 5 7 25 19 33 30 47 51 54 61 67 71 64 63 61 59 57 55 53 51 51 51 52 56 54 53 54 63 56 55 57 50 45 41 34 28 18 17 19 19 19 22 24 25
9 8 10 6 6 7 17 16 30 40 35 60 77 77 73 73 69 66 65 62 61 60 57 54 51 49 48 53 55 52 53 53 45 63 62 48 39 41 50 41 25 24 20 22 23 24 29 32 28
6 7 12 11 5 10 17 22 27 39 35 67 82 62 76 74 73 68 71 69 66 61 58 57 53 49 47 50 54 58 55 54 55 40 46 35 36 39 38 28 26 25 23 25 27 29 33 33 32
9 12 8 14 6 6 11 14 13 15 29 71 72 67 65 68 71 74 74 75 71 67 64 59 51 47 48 49 54 55 58 59 61 63 58 45 46 37 30 29 31 26 27 27 32 32 30 31 33
10 16 10 6 4 9 6 18 11 14 21 27 37 43 48 52 56 61 69 77 76 72 63 55 51 50 46 46 52 58 60 59 63 58 50 57 52 39 36 37 37 31 32 34 35 33 28 22 21
13 9 12 5 5 7 6 4 3 3 16 23 15 7 9 18 36 47 52 70 76 72 63 56 51 49 47 49 56 58 60 65 62 57 53 58 46 46 41 41 39 35 38 38 35 33 29 24 19
16 11 11 8 4 8 19 15 8 12 15 5 5 2 7 23 22 30 44 54 70 66 59 54 51 48 44 53 50 62 66 73 66 63 68 62 62 57 50 48 44 42 40 37 34 30 25 20 15
4 12 4 7 2 14 3 7 27 19 20 13 14 25 32 31 24 24 34 49 63 67 62 57 51 48 47 53 50 58 60 65 61 71 68 67 67 60 56 53 49 46 40 34 30 26 21 16 11
18 15 12 15 8 8 2 14 12 17 31 26 20 12 11 13 17 20 27 39 54 60 59 55 52 50 51 57 59 65 69 68 72 73 72 70 68 64 59 54 49 43 38 32 26 21 17 14 10
13 12 9 10 5 4 10 14 17 23 17 22 31 27 22 15 15 17 23 31 43 51 53 50 48 49 55 56 61 63 60 65 75 78 74 72 68 64 60 54 46 41 36 31 26 20 16 13 12
11 14 7 3 4 10 10 11 14 10 8 6 6 18 19 19 20 21 26 32 39 44 46 46 44 47 54 57 58 61 63 70 75 72 70 62 61 61 59 54 48 43 37 32 26 20 17 14 12
8 8 4 10 10 9 5 12 15 16 10 10 9 8 14 16 18 19 24 32 38 43 47 47 45 47 55 57 62 64 68 70 73 75 70 67 69 63 60 54 49 43 39 34 28 22 16 13 11
3 14 11 9 11 8 5 22 4 14 13 10 12 6 9 15 17 20 24 32 41 47 50 51 50 48 55 58 61 64 67 68 74 75 73 74 66 64 56 51 46 43 38 33 26 19 15 10 3
Wind_Direction_500mb
248 214 233 286 46 63 276 259 340 186 125 183 142 151 162 78 150 199 144 158 165 169 163 164 162 158 155 152 143 136 133 118 95 80 70 61 58 61 64 62 58 57 56 56 60 71 76 67 61
159 142 141 99 89 64 270 261 213 217 138 112 97 90 61 86 120 145 150 153 159 169 168 169 167 164 162 161 155 147 142 137 108 85 66 61 59 60 60 59 59 55 58 59 68 77 73 78 68
143 146 136 91 108 174 207 210 195 166 151 83 109 82 105 119 123 148 169 175 170 170 172 172 172 172 172 169 163 157 153 148 114 93 73 65 62 64 67 65 64 63 63 63 65 71 82 84 72
148 128 70 85 217 240 214 181 166 139 230 187 138 83 116 154 161 159 160 166 169 168 173 173 177 179 180 177 174 166 162 164 133 120 90 72 66 63 57 58 63 68 71 70 75 80 88 91 81
137 108 63 85 282 267 254 181 167 165 172 159 163 181 157 169 182 160 160 158 163 169 177 177 179 183 185 185 186 181 179 175 155 133 101 80 67 60 59 57 60 63 66 71 74 86 92 88 81
101 90 69 199 255 271 276 183 170 181 166 167 153 152 163 179 172 160 160 158 163 181 182 181 186 188 190 192 194 190 186 185 175 150 124 96 73 61 54 54 62 67 71 71 70 71 74 77 68
121 84 187 170 228 299 220 177 188 179 169 201 166 136 197 180 175 166 162 164 163 171 184 184 192 199 197 204 205 201 192 190 189 174 151 123 90 71 58 71 75 71 69 67 66 64 60 56 50
116 91 119 207 192 234 197 175 213 179 191 172 175 196 213 189 182 177 175 175 175 175 182 190 204 205 217 215 208 208 206 204 201 196 179 157 95 64 62 75 77 76 75 73 65 60 54 50 46
122 68 186 211 157 236 173 168 183 193 169 183 203 209 210 191 191 189 188 187 188 185 186 191 201 210 216 226 217 214 211 214 208 205 195 189 146 71 66 67 67 71 79 77 73 63 53 45 40
91 115 212 192 194 228 196 190 180 169 183 218 223 222 213 194 197 199 199 198 196 196 193 193 196 209 214 224 226 214 206 214 214 212 200 207 181 126 74 62 62 69 67 58 58 52 42 28 23
132 176 195 215 212 224 204 218 187 174 222 222 223 221 206 196 202 206 209 211 207 204 210 212 209 207 208 217 232 223 215 212 215 215 212 214 206 221 238 166 50 41 38 23 27 32 21 13 10
124 178 178 206 210 183 214 248 232 214 237 244 244 239 213 205 209 211 211 211 211 214 218 221 223 213 215 215 225 229 220 221 224 224 219 225 228 220 228 214 182 186 178 12 346 349 1 6 9
130 253 239 245 241 237 249 242 237 249 247 250 250 224 220 214 216 215 216 217 219 222 226 227 226 223 222 218 224 224 220 223 228 232 227 236 225 230 234 221 208 208 198 239 340 328 339 350 14
169 265 265 265 251 241 218 263 227 250 246 244 242 232 221 221 221 218 217 221 225 227 229 230 229 228 219 220 220 227 226 228 226 230 237 237 234 247 245 230 220 224 217 223 321 312 322 344 22
75 316 329 242 234 242 214 288 234 254 256 239 235 229 224 224 223 227 230 228 230 231 232 231 229 226 224 221 221 222 226 225 225 236 233 233 244 232 249 227 222 225 220 232 304 304 328 330 119
52 48 344 272 159 254 165 271 265 268 235 239 236 230 227 227 229 228 228 230 231 232 233 231 233 233 234 232 224 222 227 229 231 231 240 241 241 236 222 239 218 215 213 269 284 283 272 185 146
4 238 210 313 206 127 162 270 263 249 226 247 246 242 236 234 232 229 229 232 233 236 239 239 236 237 234 231 226 223 226 231 235 232 240 239 244 232 235 235 210 191 203 266 264 253 220 174 151
203 223 237 240 191 153 215 262 266 261 270 269 266 255 245 239 237 234 232 233 236 237 236 234 231 229 228 226 222 218 223 227 235 229 232 237 237 227 223 218 207 213 217 233 235 229 186 169 157
146 191 240 238 230 176 235 246 265 272 265 270 267 259 250 246 245 235 233 233 235 235 233 230 233 230 225 221 214 212 216 220 229 240 221 228 218 221 225 186 209 204 211 222 226 202 182 168 164
164 200 252 285 222 191 268 250 253 261 251 253 260 256 258 250 247 238 231 230 232 233 231 230 230 230 227 220 216 213 214 220 222 218 220 208 232 226 191 220 198 202 221 217 198 196 187 180 172
218 196 220 223 323 231 316 272 241 273 250 259 260 262 264 260 253 242 231 230 229 229 227 228 230 229 229 220 214 216 213 218 226 219 228 221 209 214 209 209 206 210 207 201 188 186 196 194 189
236 205 188 217 58 257 16 292 228 236 257 263 280 271 265 263 261 251 237 230 229 228 225 226 227 229 227 221 216 219 221 216 224 208 233 200 203 192 207 207 197 195 195 193 187 179 181 181 181
230 122 164 155 177 349 331 287 184 149 243 266 302 339 303 269 257 249 237 230 227 226 223 223 224 224 222 214 212 222 219 225 212 219 211 200 192 193 194 204 196 189 191 186 183 180 181 179 188
149 87 57 47 79 272 195 177 213 180 218 224 227 336 320 317 278 248 236 227 222 221 218 220 222 222 220 214 219 216 225 217 216 214 197 191 192 191 190 193 195 191 190 185 181 178 173 172 170
138 96 323 326 358 245 139 234 259 283 249 214 241 285 297 293 276 239 226 221 218 216 216 217 217 221 218 214 218 216 214 206 218 204 201 198 196 191 191 191 186 188 187 183 179 173 166 155 139
198 161 164 227 216 275 120 237 252 244 270 277 262 261 293 277 259 236 226 220 218 215 217 218 219 218 216 215 215 218 218 224 216 210 203 199 195 193 188 184 183 183 181 178 170 164 156 137 116
194 195 158 96 62 10 227 284 287 272 275 258 252 263 261 256 248 230 221 222 219 217 220 223 224 222 218 219 219 223 221 217 211 207 202 200 190 186 185 185 184 181 179 175 170 163 151 126 95
156 163 90 6 207 253 275 268 232 252 207 5 281 266 250 240 227 215 212 207 208 216 224 229 230 230 225 223 224 223 220 216 213 210 205 197 194 193 190 188 186 184 181 175 167 159 141 116 96
143 182 121 131 157 182 289 256 217 229 209 185 222 250 232 221 221 217 216 207 210 214 220 230 230 230 229 228 227 223 223 219 217 209 207 201 197 195 193 189 187 185 179 172 164 151 138 123 98
218 193 153 148 207 237 165 259 196 207 199 227 257 284 224 207 208 215 210 208 216 220 224 228 228 225 223 230 229 228 229 225 212 208 201 196 198 195 193 190 188 182 176 169 160 157 139 113 28
Wind_Speed_850mb
5 3 2 1 7 10 1 7 2 3 3 2 10 8 11 7 7 6 28 23 24 28 31 28 26 24 23 20 17 17 16 10 14 17 21 24 25 23 21 19 19 21 22 21 19 17 14 17 20
4 7 6 4 9 5 8 6 7 7 20 29 20 12 7 3 6 16 25 20 22 28 30 29 27 24 22 19 18 16 13 10 12 14 20 25 27 26 24 23 23 24 24 22 20 18 17 16 18
10 9 4 9 7 8 8 8 9 5 30 5 8 10 7 7 15 20 13 20 25 30 29 27 26 24 21 18 17 15 14 11 10 11 17 21 23 25 25 25 25 24 25 24 20 18 20 20 18
9 7 10 8 5 6 6 7 13 14 9 3 15 10 8 9 12 12 15 22 29 32 29 26 25 24 21 18 15 13 13 10 10 13 14 18 21 24 25 24 25 23 24 25 23 24 22 20 18
9 5 8 6 5 6 7 7 21 9 7 10 11 9 9 14 11 16 18 24 30 33 29 26 24 23 22 20 17 14 11 11 12 11 11 13 17 21 23 23 23 24 24 24 22 22 20 19 18
5 5 8 4 6 6 6 9 14 9 12 14 9 17 11 17 18 20 24 25 26 26 32 26 23 22 21 20 17 15 12 11 12 10 9 10 12 17 20 19 19 21 23 23 21 19 18 15 15
11 8 9 9 5 4 7 15 9 13 13 12 13 11 8 26 24 24 25 27 25 24 29 24 21 20 20 19 17 15 12 13 14 10 8 8 9 13 16 16 17 18 19 20 19 20 18 18 16
8 11 8 6 9 9 8 14 7 18 9 14 19 9 9 33 31 30 30 30 29 28 29 29 24 25 23 20 18 16 15 14 15 11 10 7 5 10 16 18 18 18 18 19 19 19 18 17 15
8 9 5 10 13 8 13 8 10 10 14 22 19 13 13 38 37 36 36 36 35 33 35 33 29 27 25 23 21 19 16 18 18 16 13 8 3 6 10 15 18 21 24 25 23 21 19 18 17
8 8 17 11 10 6 10 11 16 10 12 17 19 25 21 41 44 43 43 41 44 42 39 38 35 32 28 27 26 25 24 24 21 19 17 12 7 2 6 11 14 18 20 21 21 22 22 20 17
7 9 9 6 7 7 8 6 11 12 8 25 34 34 32 45 47 45 43 41 41 43 42 39 41 35 37 35 34 30 28 27 26 25 22 19 12 6 7 4 3 13 19 22 16 18 19 22 20
2 2 6 4 8 5 4 3 7 24 27 12 29 28 39 48 50 50 49 48 46 45 43 42 43 38 43 40 39 33 30 30 28 29 25 23 20 16 17 14 12 8 3 9 17 14 17 19 17
2 2 5 9 9 9 8 19 18 25 37 35 22 30 42 49 51 50 48 47 48 47 45 45 46 42 42 38 38 40 34 33 32 29 29 28 28 22 21 22 20 15 5 0 11 12 16 15 14
2 4 8 10 14 13 9 8 5 16 33 39 35 36 45 52 53 55 57 56 54 51 49 47 49 46 43 40 40 37 39 38 40 35 34 32 31 27 25 28 23 19 11 6 4 17 15 11 8
1 7 12 11 11 10 11 15 20 42 32 31 40 41 48 53 56 60 55 56 54 53 52 51 51 50 49 49 44 42 43 45 43 43 41 35 36 36 34 38 31 22 12 9 13 16 9 6 5
5 7 6 3 11 3 12 21 8 8 28 39 41 43 50 55 59 56 56 56 57 57 56 55 55 56 57 57 54 49 49 48 47 47 43 44 41 42 40 44 39 22 14 12 13 15 10 7 13
10 7 8 15 12 5 6 15 8 4 18 33 42 51 57 59 62 61 58 57 57 57 58 58 58 59 58 57 56 54 52 53 54 50 52 48 46 47 44 39 27 24 14 13 12 16 10 17 23
11 8 9 11 3 5 7 25 19 33 30 47 51 54 61 67 71 64 63 61 59 57 55 53 51 51 51 52 56 54 53 54 63 56 55 57 50 45 41 34 28 18 17 19 19 19 22 24 25
9 8 10 6 6 7 17 16 30 40 35 60 77 77 73 73 69 66 65 62 61 60 57 54 51 49 48 53 55 52 53 53 45 63 62 48 39 41 50 41 25 24 20 22 23 24 29 32 28
6 7 12 11 5 10 17 22 27 39 35 67 82 62 76 74 73 68 71 69 66 61 58 57 53 49 47 50 54 58 55 54 55 40 46 35 36 39 38 28 26 25 23 25 27 29 33 33 32
9 12 8 14 6 6 11 14 13 15 29 71 72 67 65 68 71 74 74 75 71 67 64 59 51 47 48 49 54 55 58 59 61 63 58 45 46 37 30 29 31 26 27 27 32 32 30 31 33
10 16 10 6 4 9 6 18 11 14 21 27 37 43 48 52 56 61 69 77 76 72 63 55 51 50 46 46 52 58 60 59 63 58 50 57 52 39 36 37 37 31 32 34 35 33 28 22 21
13 9 12 5 5 7 6 4 3 3 16 23 15 7 9 18 36 47 52 70 76 72 63 56 51 49 47 49 56 58 60 65 62 57 53 58 46 46 41 41 39 35 38 38 35 33 29 24 19
16 11 11 8 4 8 19 15 8 12 15 5 5 2 7 23 22 30 44 54 70 66 59 54 51 48 44 53 50 62 66 73 66 63 68 62 62 57 50 48 44 42 40 37 34 30 25 20 15
4 12 4 7 2 14 3 7 27 19 20 13 14 25 32 31 24 24 34 49 63 67 62 57 51 48 47 53 50 58 60 65 61 71 68 67 67 60 56 53 49 46 40 34 30 26 21 16 11
18 15 12 15 8 8 2 14 12 17 31 26 20 12 11 13 17 20 27 39 54 60 59 55 52 50 51 57 59 65 69 68 72 73 72 70 68 64 59 54 49 43 38 32 26 21 17 14 10
13 12 9 10 5 4 10 14 17 23 17 22 31 27 22 15 15 17 23 31 43 51 53 50 48 49 55 56 61 63 60 65 75 78 74 72 68 64 60 54 46 41 36 31 26 20 16 13 12
11 14 7 3 4 10 10 11 14 10 8 6 6 18 19 19 20 21 26 32 39 44 46 46 44 47 54 57 58 61 63 70 75 72 70 62 61 61 59 54 48 43 37 32 26 20 17 14 12
8 8 4 10 10 9 5 12 15 16 10 10 9 8 14 16 18 19 24 32 38 43 47 47 45 47 55 57 62 64 68 70 73 75 70 67 69 63 60 54 49 43 39 34 28 22 16 13 11
3 14 11 9 11 8 5 22 4 14 13 10 12 6 9 15 17 20 24 32 41 47 50 51 50 48 55 58 61 64 67 68 74 75 73 74 66 64 56 51 46 43 38 33 26 19 15 10 3
Wind_Direction_850mb
248 214 233 286 46 63 276 259 340 186 125 183 142 151 162 78 150 199 144 158 165 169 163 164 162 158 155 152 143 136 133 118 95 80 70 61 58 61 64 62 58 57 56 56 60 71 76 67 61
159 142 141 99 89 64 270 261 213 217 138 112 97 90 61 86 120 145 150 153 159 169 168 169 167 164 162 161 155 147 142 137 108 85 66 61 59 60 60 59 59 55 58 59 68 77 73 78 68
143 146 136 91 108 174 207 210 195 166 151 83 109 82 105 119 123 148 169 175 170 170 172 172 172 172 172 169 163 157 153 148 114 93 73 65 62 64 67 65 64 63 63 63 65 71 82 84 72
148 128 70 85 217 240 214 181 166 139 230 187 138 83 116 154 161 159 160 166 169 168 173 173 177 179 180 177 174 166 162 164 133 120 90 72 66 63 57 58 63 68 71 70 75 80 88 91 81
137 108 63 85 282 267 254 181 167 165 172 159 163 181 157 169 182 160 160 158 163 169 177 177 179 183 185 185 186 181 179 175 155 133 101 80 67 60 59 57 60 63 66 71 74 86 92 88 81
101 90 69 199 255 271 276 183 170 181 166 167 153 152 163 179 172 160 160 158 163 181 182 181 186 188 190 192 194 190 186 185 175 150 124 96 73 61 54 54 62 67 71 71 70 71 74 77 68
121 84 187 170 228 299 220 177 188 179 169 201 166 136 197 180 175 166 162 164 163 171 184 184 192 199 197 204 205 201 192 190 189 174 151 123 90 71 58 71 75 71 69 67 66 64 60 56 50
116 91 119 207 192 234 197 175 213 179 191 172 175 196 213 189 182 177 175 175 175 175 182 190 204 205 217 215 208 208 206 204 201 196 179 157 95 64 62 75 77 76 75 73 65 60 54 50 46
122 68 186 211 157 236 173 168 183 193 169 183 203 209 210 191 191 189 188 187 188 185 186 191 201 210 216 226 217 214 211 214 208 205 195 189 146 71 66 67 67 71 79 77 73 63 53 45 40
91 115 212 192 194 228 196 190 180 169 183 218 223 222 213 194 197 199 199 198 196 196 193 193 196 209 214 224 226 214 206 214 214 212 200 207 181 126 74 62 62 69 67 58 58 52 42 28 23
132 176 195 215 212 224 204 218 187 174 222 222 223 221 206 196 202 206 209 211 207 204 210 212 209 207 208 217 232 223 215 212 215 215 212 214 206 221 238 166 50 41 38 23 27 32 21 13 10
124 178 178 206 210 183 214 248 232 214 237 244 244 239 213 205 209 211 211 211 211 214 218 221 223 213 215 215 225 229 220 221 224 224 219 225 228 220 228 214 182 186 178 12 346 349 1 6 9
130 253 239 245 241 237 249 242 237 249 247 250 250 224 220 214 216 215 216 217 219 222 226 227 226 223 222 218 224 224 220 223 228 232 227 236 225 230 234 221 208 208 198 239 340 328 339 350 14
169 265 265 265 251 241 218 263 227 250 246 244 242 232 221 221 221 218 217 221 225 227 229 230 229 228 219 220 220 227 226 228 226 230 237 237 234 247 245 230 220 224 217 223 321 312 322 344 22
75 316 329 242 234 242 214 288 234 254 256 239 235 229 224 224 223 227 230 228 230 231 232 231 229 226 224 221 221 222 226 225 225 236 233 233 244 232 249 227 222 225 220 232 304 304 328 330 119
52 48 344 272 159 254 165 271 265 268 235 239 236 230 227 227 229 228 228 230 231 232 233 231 233 233 234 232 224 222 227 229 231 231 240 241 241 236 222 239 218 215 213 269 284 283 272 185 146
4 238 210 313 206 127 162 270 263 249 226 247 246 242 236 234 232 229 229 232 233 236 239 239 236 237 234 231 226 223 226 231 235 232 240 239 244 232 235 235 210 191 203 266 264 253 220 174 151
203 223 237 240 191 153 215 262 266 261 270 269 266 255 245 239 237 234 232 233 236 237 236 234 231 229 228 226 222 218 223 227 235 229 232 237 237 227 223 218 207 213 217 233 235 229 186 169 157
146 191 240 238 230 176 235 246 265 272 265 270 267 259 250 246 245 235 233 233 235 235 233 230 233 230 225 221 214 212 216 220 229 240 221 228 218 221 225 186 209 204 211 222 226 202 182 168 164
164 200 252 285 222 191 268 250 253 261 251 253 260 256 258 250 247 238 231 230 232 233 231 230 230 230 227 220 216 213 214 220 222 218 220 208 232 226 191 220 198 202 221 217 198 196 187 180 172
218 196 220 223 323 231 316 272 241 273 250 259 260 262 264 260 253 242 231 230 229 229 227 228 230 229 229 220 214 216 213 218 226 219 228 221 209 214 209 209 206 210 207 201 188 186 196 194 189
236 205 188 217 58 257 16 292 228 236 257 263 280 271 265 263 261 251 237 230 229 228 225 226 227 229 227 221 216 219 221 216 224 208 233 200 203 192 207 207 197 195 195 193 187 179 181 181 181
230 122 164 155 177 349 331 287 184 149 243 266 302 339 303 269 257 249 237 230 227 226 223 223 224 224 222 214 212 222 219 225 212 219 211 200 192 193 194 204 196 189 191 186 183 180 181 179 188
149 87 57 47 79 272 195 177 213 180 218 224 227 336 320 317 278 248 236 227 222 221 218 220 222 222 220 214 219 216 225 217 216 214 197 191 192 191 190 193 195 191 190 185 181 178 173 172 170
138 96 323 326 358 245 139 234 259 283 249 214 241 285 297 293 276 239 226 221 218 216 216 217 217 221 218 214 218 216 214 206 218 204 201 198 196 191 191 191 186 188 187 183 179 173 166 155 139
198 161 164 227 216 275 120 237 252 244 270 277 262 261 293 277 259 236 226 220 218 215 217 218 219 218 216 215 215 218 218 224 216 210 203 199 195 193 188 184 183 183 181 178 170 164 156 137 116
194 195 158 96 62 10 227 284 287 272 275 258 252 263 261 256 248 230 221 222 219 217 220 223 224 222 218 219 219 223 221 217 211 207 202 200 190 186 185 185 184 181 179 175 170 163 151 126 95
156 163 90 6 207 253 275 268 232 252 207 5 281 266 250 240 227 215 212 207 208 216 224 229 230 230 225 223 224 223 220 216 213 210 205 197 194 193 190 188 186 184 181 175 167 159 141 116 96
143 182 121 131 157 182 289 256 217 229 209 185 222 250 232 221 221 217 216 207 210 214 220 230 230 230 229 228 227 223 223 219 217 209 207 201 197 195 193 189 187 185 179 172 164 151 138 123 98
218 193 153 148 207 237 165 259 196 207 199 227 257 284 224 207 208 215 210 208 216 220 224 228 228 225 223 230 229 228 229 225 212 208 201 196 198 195 193 190 188 182 176 169 160 157 139 113 28